{"data":{"norad_id":53216,"epoch":"2026-05-25T03:42:48.665088Z","epoch_age_seconds":72056,"freshness":"FRESH","line1":"1 53216U 22084AD  26145.15472992 -.00012169  00000+0 -83940-3 0  9997","line2":"2 53216  97.4457 205.0944 0000366 114.7085 245.4181 15.05712197210815","mean_motion":15.05712197,"eccentricity":3.66e-5,"inclination_deg":97.4457,"raan_deg":205.0944,"arg_perigee_deg":114.7085,"mean_anomaly_deg":245.4181,"bstar":-0.0008394,"rev_number":21081,"period_min":95.63580628948,"perigee_km":549.06683253522,"apogee_km":549.57392241525,"semimajor_km":6927.4573774752,"source":"CELESTRAK","updated_at":"2026-05-25T13:38:17.355198Z"}}